Вернуться в каталог

ICEYE-X25

АктивенНаукаPO
NORAD 56963·PAYLOAD·🇫🇮 Finland

Запущен Jun 12, 2023 с Vandenberg Space Force Base

Loading…

Ближайшие Пролёты (ближайшие 24 часа)

TLE

СвежийSource: Space-Track

Эпоха: Sep 14, 2026, 14:13 UTC

1 56963U 23084AH  26257.59266615  .00030263  00000-0  29579-3 0  9997
2 56963  97.5981  50.5075 0002895 344.3422  15.7747 15.66121223181941

Отслеживайте ICEYE-X25 в реальном времени с AllMySat

Download on the App Store